Regional Weather Roundup
Issued by NWS

Home | Current Version | Previous Version | Text Only | Print | Product List | Glossary Off
Versions: 1 2 3 4 5 6 7 8 9 10 11 12 13 14 15 16 17 18 19 20 21 22 23 24 25 26 27 28 29 30 31 32 33 34 35 36 37 38 39 40 41 42 43 44 45 46 47 48 49 50

000
ASUS43 KLSX 290110
RWRMO

WEATHER SUMMARY FOR MISSOURI
NATIONAL WEATHER SERVICE SPRINGFIELD MO
800 PM CDT FRI AUG 28 2015

NOTE: "FAIR" INDICATES FEW OR NO CLOUDS BELOW 12,000 FEET WITH NO
       SIGNIFICANT WEATHER AND/OR OBSTRUCTIONS TO VISIBILITY.
       CURRENT SKY AND/OR WEATHER CONDITIONS ARE NOT AVAILABLE FOR
       CHILLICOTHE AND FARMINGTON.

MOZ001>031-035>038-043-044-053-054-290200-
...NORTHERN AND WESTERN MISSOURI...

CITY           SKY/WX    TMP DP  RH WIND       PRES   REMARKS
KANSAS CTY INT MOCLDY    73  65  75 S13       29.90S
KANSAS C DTWN  CLOUDY    75  67  76 S13       29.89F
LEE`S SUMMIT   CLOUDY    74  66  76 S10       29.91F
ST JOSEPH      PTCLDY    75  66  73 S12       29.87R
CHILLICOTHE      N/A     73  71  93 SE7       29.92S
KIRKSVILLE     MOCLDY    69  65  86 S9        29.93F

$$
MOZ066>068-077>081-088>096-101>105-290200-
...SOUTHWEST MISSOURI...

CITY           SKY/WX    TMP DP  RH WIND       PRES   REMARKS
SPRINGFIELD    CLOUDY    76  62  62 SE14      29.97S
JOPLIN         CLOUDY    75  66  73 S6        29.95R

$$
MOZ032>034-039>042-045>050-055>058-069>072-290200-
...CENTRAL MISSOURI...

CITY           SKY/WX    TMP DP  RH WIND       PRES   REMARKS
COLUMBIA       CLOUDY    71  65  81 SE8       29.98R
JEFFERSON CITY CLOUDY    75  63  66 E3        29.97R
ROLLA          CLOUDY    72  62  71 S10       29.99S
SEDALIA        MOCLDY    73  66  78 SE10      29.95F
WHITEMAN AFB   MOCLDY    72  66  80 S7        29.92F
WARRENSBURG    MOCLDY    72  64  78 CALM      29.93S
OSAGE BEACH    CLOUDY    73  63  68 SE7       29.97F

$$
MOZ051-052-059>065-290200-
...EAST CENTRAL MISSOURI...

CITY           SKY/WX    TMP DP  RH WIND       PRES   REMARKS
ST LOUIS INTL  CLOUDY    77  59  53 SE14      30.00F
SPIRIT OF STL  CLOUDY    75  62  64 VRB3      29.98F
ST CHARLES     CLOUDY    73  63  70 SE9       29.98F

$$
MOZ072>076-082>087-097>100-106>115-290200-
...SOUTH CENTRAL AND SOUTHEAST MISSOURI...

CITY           SKY/WX    TMP DP  RH WIND       PRES   REMARKS
CAPE GIRARDEAU CLEAR     69  65  86 SE5       30.01S
FARMINGTON     MOCLDY    72  61  68 SE5       30.04F
POPLAR BLUFF   PTCLDY    71  66  84 CALM      29.99F
WEST PLAINS    CLEAR     70  60  70 CALM      30.05R

$$



USA.gov is the U.S. government's official web portal to all federal, state and local government web resources and services.